Change the Weather History Date:

Wednesday, May 22, 2013

  Actual Average (KTHA) Record (KTHA)
Temperature  
Mean Temperature 73 °F -  
Max Temperature 82 °F 79 °F 84 °F (2014)
Min Temperature 62 °F 55 °F 60 °F (2014)
Cooling Degree Days 8    
Growing Degree Days 23 (Base 50)    
Moisture  
Dew Point 64 °F    
Average Humidity 75    
Maximum Humidity 100    
Minimum Humidity 54    
Precipitation  
Precipitation 0.00 in - - ()
Sea Level Pressure  
Sea Level Pressure 29.92 in    
Wind  
Wind Speed 4 mph (SSW)    
Max Wind Speed 12 mph    
Max Gust Speed -    
Visibility 10 miles    
Events      
Averages and records for this station are not official NWS values.
T = Trace of Precipitation, MM = Missing Value Source: NWS Daily Summary

Daily Weather History Graph

Daily Weather History Graph

Search for Another Location

Airport or City:

Trip Planner

Search our weather history database for the weather conditions in past years. The results will help you decide how hot, cold, wet, or windy it might be!

Date:

Astronomy

May. 22, 2013 Rise Set
Actual Time 6:35 AM EDT 8:46 PM EDT
Civil Twilight 6:06 AM EDT 9:15 PM EDT
Nautical Twilight 5:31 AM EDT 9:50 PM EDT
Astronomical Twilight 4:53 AM EDT 10:28 PM EDT
Moon 6:13 PM EDT (5/22) 4:32 AM EDT (5/22)
Length of Visible Light 15h 08m
Length of Day
14h 11m
Waxing Gibbous, 91% of the Moon is Illuminated
May 22
Waxing Gibbous
May 25
Full
May 31
Last Quarter
Jun 8
New
Jun 16
First Quarter

Hourly Weather History & Observations

Time (EDT) Temp. Heat Index Dew Point Humidity Pressure Visibility Wind Dir Wind Speed Gust Speed Precip Events Conditions
12:15 AM 71.6 °F - 66.2 °F 83% 29.95 in 10.0 mi South 5.8 mph - N/A   Clear
12:35 AM 71.6 °F - 64.4 °F 78% 29.94 in 10.0 mi South 3.5 mph - N/A   Clear
12:55 AM 71.6 °F - 64.4 °F 78% 29.94 in 10.0 mi Calm Calm - N/A   Clear
1:35 AM 71.6 °F - 64.4 °F 78% 29.94 in 10.0 mi Calm Calm - N/A   Clear
1:55 AM 69.8 °F - 66.2 °F 88% 29.93 in 9.0 mi Calm Calm - N/A   Clear
2:15 AM 68.0 °F - 64.4 °F 88% 29.93 in 10.0 mi ESE 4.6 mph - N/A   Clear
2:35 AM 69.8 °F - 64.4 °F 83% 29.92 in 10.0 mi Calm Calm - N/A   Partly Cloudy
2:55 AM 69.8 °F - 64.4 °F 83% 29.92 in 10.0 mi Calm Calm - N/A   Mostly Cloudy
3:15 AM 69.8 °F - 66.2 °F 88% 29.92 in 10.0 mi Calm Calm - N/A   Mostly Cloudy
3:35 AM 68.0 °F - 66.2 °F 94% 29.91 in 10.0 mi Calm Calm - N/A   Mostly Cloudy
3:55 AM 68.0 °F - 66.2 °F 94% 29.92 in 9.0 mi Calm Calm - N/A   Mostly Cloudy
4:15 AM 66.2 °F - 64.4 °F 94% 29.92 in 10.0 mi ESE 3.5 mph - N/A   Partly Cloudy
4:35 AM 66.2 °F - 64.4 °F 94% 29.92 in 10.0 mi SE 3.5 mph - N/A   Partly Cloudy
4:55 AM 68.0 °F - 64.4 °F 88% 29.92 in 10.0 mi Calm Calm - N/A   Partly Cloudy
5:15 AM 68.0 °F - 64.4 °F 88% 29.92 in 10.0 mi Calm Calm - N/A   Mostly Cloudy
5:35 AM 69.8 °F - 66.2 °F 88% 29.94 in 4.0 mi West 8.1 mph - N/A   Mostly Cloudy
5:55 AM 68.0 °F - 64.4 °F 88% 29.95 in 10.0 mi West 6.9 mph - N/A   Overcast
6:15 AM 66.2 °F - 64.4 °F 94% 29.96 in 10.0 mi WSW 4.6 mph - N/A   Overcast
6:35 AM 66.2 °F - 64.4 °F 94% 29.96 in 5.0 mi South 3.5 mph - N/A   Overcast
6:55 AM 66.2 °F - 64.4 °F 94% 29.94 in 10.0 mi SE 3.5 mph - N/A   Mostly Cloudy
7:15 AM 64.4 °F - 64.4 °F 100% 29.93 in 10.0 mi SE 3.5 mph - N/A   Partly Cloudy
7:35 AM 66.2 °F - 64.4 °F 94% 29.91 in 10.0 mi SE 6.9 mph - N/A   Clear
7:55 AM 66.2 °F - 64.4 °F 94% 29.90 in 10.0 mi SE 6.9 mph - N/A   Clear
8:15 AM 66.2 °F - 64.4 °F 94% 29.90 in 10.0 mi SSE 4.6 mph - N/A   Clear
8:35 AM 69.8 °F - 62.6 °F 78% 29.90 in 10.0 mi SE 5.8 mph - N/A   Clear
8:55 AM 69.8 °F - 64.4 °F 83% 29.90 in 10.0 mi SSE 3.5 mph - N/A   Clear
9:15 AM 69.8 °F - 62.6 °F 78% 29.90 in 10.0 mi SE 5.8 mph - N/A   Clear
9:35 AM 69.8 °F - 64.4 °F 83% 29.91 in 10.0 mi SSE 6.9 mph - N/A   Clear
9:55 AM 69.8 °F - 64.4 °F 83% 29.92 in 10.0 mi SSE 5.8 mph - N/A   Clear
10:15 AM 71.6 °F - 64.4 °F 78% 29.93 in 10.0 mi SSE 6.9 mph - N/A   Clear
10:35 AM 73.4 °F - 64.4 °F 73% 29.94 in 10.0 mi SSE 4.6 mph - N/A   Clear
10:55 AM 73.4 °F - 64.4 °F 73% 29.95 in 10.0 mi Calm Calm - N/A   Clear
11:15 AM 75.2 °F - 64.4 °F 69% 29.95 in 10.0 mi South 5.8 mph - N/A   Scattered Clouds
11:35 AM 75.2 °F - 64.4 °F 69% 29.96 in 10.0 mi South 5.8 mph - N/A   Scattered Clouds
11:55 AM 78.8 °F - 66.2 °F 65% 29.96 in 10.0 mi SSW 8.1 mph - N/A   Clear
12:15 PM 78.8 °F - 64.4 °F 61% 29.96 in 10.0 mi South 5.8 mph - N/A   Mostly Cloudy
12:35 PM 78.8 °F - 64.4 °F 61% 29.96 in 10.0 mi SSW 5.8 mph - N/A   Mostly Cloudy
12:55 PM 78.8 °F - 62.6 °F 57% 29.95 in 10.0 mi South 6.9 mph - N/A   Scattered Clouds
1:15 PM 80.6 °F 82.3 °F 64.4 °F 58% 29.95 in 10.0 mi South 5.8 mph - N/A   Clear
1:35 PM 80.6 °F 82.3 °F 64.4 °F 58% 29.94 in 10.0 mi SSW 10.4 mph - N/A   Partly Cloudy
1:55 PM 80.6 °F 82.3 °F 64.4 °F 58% 29.94 in 10.0 mi South 9.2 mph - N/A   Partly Cloudy
2:15 PM 80.6 °F 82.3 °F 64.4 °F 58% 29.94 in 10.0 mi SSW 8.1 mph - N/A   Partly Cloudy
2:35 PM 78.8 °F - 64.4 °F 61% 29.93 in 10.0 mi SW 6.9 mph - N/A   Clear
2:55 PM 80.6 °F 82.3 °F 64.4 °F 58% 29.92 in 10.0 mi SW 8.1 mph - N/A   Clear
3:15 PM 78.8 °F - 64.4 °F 61% 29.91 in 10.0 mi South 4.6 mph - N/A   Partly Cloudy
3:35 PM 80.6 °F 82.7 °F 66.2 °F 61% 29.91 in 10.0 mi Variable 5.8 mph - N/A   Partly Cloudy
3:55 PM 80.6 °F 82.7 °F 66.2 °F 61% 29.90 in 10.0 mi SSW 9.2 mph - N/A   Scattered Clouds
4:15 PM 82.4 °F 83.9 °F 64.4 °F 54% 29.89 in 10.0 mi SSW 9.2 mph - N/A   Scattered Clouds
4:35 PM 80.6 °F 82.3 °F 64.4 °F 58% 29.88 in 10.0 mi South 10.4 mph - N/A   Partly Cloudy
4:55 PM 80.6 °F 82.3 °F 64.4 °F 58% 29.87 in 10.0 mi SW 10.4 mph - N/A   Scattered Clouds
5:15 PM 80.6 °F 81.8 °F 62.6 °F 54% 29.87 in 10.0 mi SW 10.4 mph - N/A   Mostly Cloudy
5:35 PM 80.6 °F 81.8 °F 62.6 °F 54% 29.87 in 10.0 mi SW 10.4 mph - N/A   Mostly Cloudy
5:55 PM 80.6 °F 81.8 °F 62.6 °F 54% 29.86 in 10.0 mi WSW 11.5 mph - N/A   Partly Cloudy
6:15 PM 78.8 °F - 62.6 °F 57% 29.87 in 10.0 mi SW 4.6 mph - N/A   Scattered Clouds
6:35 PM 78.8 °F - 62.6 °F 57% 29.87 in 10.0 mi SW 10.4 mph - N/A   Mostly Cloudy
6:55 PM 78.8 °F - 62.6 °F 57% 29.87 in 10.0 mi SSW 8.1 mph - N/A   Scattered Clouds
7:15 PM 77.0 °F - 62.6 °F 61% 29.87 in 10.0 mi SSW 8.1 mph - N/A   Partly Cloudy
7:35 PM 77.0 °F - 62.6 °F 61% 29.88 in 10.0 mi SSW 5.8 mph - N/A   Partly Cloudy
7:55 PM 75.2 °F - 62.6 °F 65% 29.88 in 10.0 mi SSW 4.6 mph - N/A   Partly Cloudy
8:15 PM 75.2 °F - 62.6 °F 65% 29.89 in 10.0 mi SSW 4.6 mph - N/A   Partly Cloudy
8:35 PM 73.4 °F - 64.4 °F 73% 29.89 in 10.0 mi South 5.8 mph - N/A   Mostly Cloudy
8:55 PM 73.4 °F - 64.4 °F 73% 29.90 in 10.0 mi SSW 3.5 mph - N/A   Mostly Cloudy
9:15 PM 73.4 °F - 64.4 °F 73% 29.90 in 10.0 mi SSW 3.5 mph - N/A   Overcast
9:35 PM 73.4 °F - 64.4 °F 73% 29.91 in 10.0 mi WNW 5.8 mph - N/A   Mostly Cloudy
9:55 PM 71.6 °F - 64.4 °F 78% 29.91 in 10.0 mi SW 4.6 mph - N/A   Mostly Cloudy
10:15 PM 69.8 °F - 64.4 °F 83% 29.91 in 10.0 mi SW 3.5 mph - N/A   Mostly Cloudy
10:35 PM 69.8 °F - 64.4 °F 83% 29.93 in 10.0 mi SW 3.5 mph - N/A   Mostly Cloudy
10:55 PM 69.8 °F - 62.6 °F 78% 29.93 in 10.0 mi SSW 5.8 mph - N/A   Mostly Cloudy
11:15 PM 68.0 °F - 62.6 °F 83% 29.93 in 10.0 mi Calm Calm - N/A   Clear
11:35 PM 64.4 °F - 62.6 °F 94% 29.94 in 10.0 mi Calm Calm - N/A   Clear
11:55 PM 62.6 °F - 60.8 °F 94% 29.94 in 10.0 mi Calm Calm - N/A   Clear